Powrót do katalogu

STARLINK-4738

AktywnyŁącznośćVLEO
NORAD 53819·PAYLOAD·🇺🇸 United States

Wystrzelony Sep 19, 2022 z Cape Canaveral Space Force Station

Loading…

Następne Przeloty (najbliższe 24 godziny)

TLE

ŚwieżeSource: CelesTrak SupGP

Epoka: Sep 15, 2026, 02:42 UTC

1 53819C 22114B   26258.11298611  .00009391  00000+0  30199-3 0  2582
2 53819  53.1585 160.9067 0001759  85.8908 232.6824 15.31697440    12

Śledź STARLINK-4738 w czasie rzeczywistym z AllMySat

Download on the App Store